owner,sensor,date,latitude,longitude,vertical_datum,sea_water_temperature,qcFlag
BP,ioos:station:wmo:42865:2,2021-01-14T14:59:00Z,28.4662,-88.2943,10.0,19.5,11111222
BP,ioos:station:wmo:42865:2,2021-01-14T15:09:00Z,28.4662,-88.2943,10.0,19.4,11111222
BP,ioos:station:wmo:42865:2,2021-01-14T15:19:00Z,28.4662,-88.2943,10.0,19.4,11111222
BP,ioos:station:wmo:42865:2,2021-01-14T15:29:00Z,28.4662,-88.2943,10.0,19.4,11111222
BP,ioos:station:wmo:42865:2,2021-01-14T15:39:00Z,28.4662,-88.2943,10.0,19.6,11111222
BP,ioos:station:wmo:42865:2,2021-01-14T15:49:00Z,28.4662,-88.2943,10.0,19.4,11111222
BP,ioos:station:wmo:42865:2,2021-01-14T15:59:00Z,28.4662,-88.2943,10.0,19.5,11111222
BP,ioos:station:wmo:42865:2,2021-01-14T16:09:00Z,28.4662,-88.2943,10.0,19.5,11111222
BP,ioos:station:wmo:42865:2,2021-01-14T16:19:00Z,28.4662,-88.2943,10.0,19.7,11111222
BP,ioos:station:wmo:42865:2,2021-01-14T16:29:00Z,28.4662,-88.2943,10.0,19.8,11111222
BP,ioos:station:wmo:42865:2,2021-01-14T16:39:00Z,28.4662,-88.2943,10.0,19.6,11111222
BP,ioos:station:wmo:42865:2,2021-01-14T16:49:00Z,28.4662,-88.2943,10.0,19.6,11111222
BP,ioos:station:wmo:42865:2,2021-01-14T16:59:00Z,28.4662,-88.2943,10.0,19.7,11111222
BP,ioos:station:wmo:42865:2,2021-01-14T17:09:00Z,28.4662,-88.2943,10.0,19.7,11111222
BP,ioos:station:wmo:42865:2,2021-01-14T17:19:00Z,28.4662,-88.2943,10.0,19.7,11111222
BP,ioos:station:wmo:42865:2,2021-01-14T17:29:00Z,28.4662,-88.2943,10.0,19.8,11111222
BP,ioos:station:wmo:42865:2,2021-01-14T17:39:00Z,28.4662,-88.2943,10.0,19.7,11111222
BP,ioos:station:wmo:42865:2,2021-01-14T17:49:00Z,28.4662,-88.2943,10.0,19.6,11111222
BP,ioos:station:wmo:42865:2,2021-01-14T17:59:00Z,28.4662,-88.2943,10.0,19.7,11111222
BP,ioos:station:wmo:42865:2,2021-01-14T18:09:00Z,28.4662,-88.2943,10.0,19.7,11111222
BP,ioos:station:wmo:42865:2,2021-01-14T18:19:00Z,28.4662,-88.2943,10.0,19.6,11111222
BP,ioos:station:wmo:42865:2,2021-01-14T18:29:00Z,28.4662,-88.2943,10.0,19.6,11111222
BP,ioos:station:wmo:42865:2,2021-01-14T18:39:00Z,28.4662,-88.2943,10.0,19.7,11111222
BP,ioos:station:wmo:42865:2,2021-01-14T18:49:00Z,28.4662,-88.2943,10.0,19.7,11111222
BP,ioos:station:wmo:42865:2,2021-01-14T18:59:00Z,28.4662,-88.2943,10.0,19.8,11111222
BP,ioos:station:wmo:42865:2,2021-01-14T19:09:00Z,28.4662,-88.2943,10.0,19.7,11111222
BP,ioos:station:wmo:42865:2,2021-01-14T19:19:00Z,28.4662,-88.2943,10.0,19.8,11111222
BP,ioos:station:wmo:42865:2,2021-01-14T19:29:00Z,28.4662,-88.2943,10.0,19.8,11111222
BP,ioos:station:wmo:42865:2,2021-01-14T19:39:00Z,28.4662,-88.2943,10.0,19.7,11111222
BP,ioos:station:wmo:42865:2,2021-01-19T16:10:00Z,28.4662,-88.2943,10.0,21.3,11111222
BP,ioos:station:wmo:42865:2,2021-01-19T16:20:00Z,28.4662,-88.2943,10.0,21.3,11111222
BP,ioos:station:wmo:42865:2,2021-01-19T16:30:00Z,28.4662,-88.2943,10.0,21.3,11111222
BP,ioos:station:wmo:42865:2,2021-01-19T16:40:00Z,28.4662,-88.2943,10.0,21.3,11111222
BP,ioos:station:wmo:42865:2,2021-01-19T16:50:00Z,28.4662,-88.2943,10.0,21.3,11111222
BP,ioos:station:wmo:42865:2,2021-01-19T17:00:00Z,28.4662,-88.2943,10.0,21.3,11111222
BP,ioos:station:wmo:42865:2,2021-01-19T17:10:00Z,28.4662,-88.2943,10.0,21.3,11111222
BP,ioos:station:wmo:42865:2,2021-01-19T17:20:00Z,28.4662,-88.2943,10.0,21.3,11111222
BP,ioos:station:wmo:42865:2,2021-01-19T17:30:00Z,28.4662,-88.2943,10.0,21.3,11111222
BP,ioos:station:wmo:42865:2,2021-01-19T17:40:00Z,28.4662,-88.2943,10.0,21.3,11111222
BP,ioos:station:wmo:42865:2,2021-01-19T17:50:00Z,28.4662,-88.2943,10.0,21.3,11111222
BP,ioos:station:wmo:42865:2,2021-01-19T18:00:00Z,28.4662,-88.2943,10.0,21.4,11111222
BP,ioos:station:wmo:42865:2,2021-01-19T18:10:00Z,28.4662,-88.2943,10.0,21.3,11111222
BP,ioos:station:wmo:42865:2,2021-01-19T18:20:00Z,28.4662,-88.2943,10.0,21.3,11111222
BP,ioos:station:wmo:42865:2,2021-01-19T18:30:00Z,28.4662,-88.2943,10.0,21.2,11111222
BP,ioos:station:wmo:42865:2,2021-01-19T18:40:00Z,28.4662,-88.2943,10.0,21.3,11111222
BP,ioos:station:wmo:42865:2,2021-01-19T18:50:00Z,28.4662,-88.2943,10.0,21.2,11111222
BP,ioos:station:wmo:42865:2,2021-01-19T19:00:00Z,28.4662,-88.2943,10.0,21.3,11111222
BP,ioos:station:wmo:42865:2,2021-01-19T19:10:00Z,28.4662,-88.2943,10.0,21.4,11111222
BP,ioos:station:wmo:42865:2,2021-01-19T19:20:00Z,28.4662,-88.2943,10.0,20.9,11111222
BP,ioos:station:wmo:42865:2,2021-01-19T19:30:00Z,28.4662,-88.2943,10.0,21.0,11111222
BP,ioos:station:wmo:42865:2,2021-01-19T19:40:00Z,28.4662,-88.2943,10.0,21.3,11111222
BP,ioos:station:wmo:42865:2,2021-01-19T19:50:00Z,28.4662,-88.2943,10.0,21.6,11111222
BP,ioos:station:wmo:42865:2,2021-01-19T20:00:00Z,28.4662,-88.2943,10.0,21.0,11111222
BP,ioos:station:wmo:42865:2,2021-01-19T20:10:00Z,28.4662,-88.2943,10.0,21.0,11111222
BP,ioos:station:wmo:42865:2,2021-01-19T20:20:00Z,28.4662,-88.2943,10.0,21.2,11111222
BP,ioos:station:wmo:42865:2,2021-01-19T20:30:00Z,28.4662,-88.2943,10.0,21.1,11111222
BP,ioos:station:wmo:42865:2,2021-01-19T20:40:00Z,28.4662,-88.2943,10.0,21.4,11111222
BP,ioos:station:wmo:42865:2,2021-01-19T20:50:00Z,28.4662,-88.2943,10.0,21.5,11111222
BP,ioos:station:wmo:42865:2,2021-01-19T21:00:00Z,28.4662,-88.2943,10.0,21.6,11111222
BP,ioos:station:wmo:42865:2,2021-01-19T21:10:00Z,28.4662,-88.2943,10.0,21.1,11111222
BP,ioos:station:wmo:42865:2,2021-01-19T21:20:00Z,28.4662,-88.2943,10.0,21.1,11111222
BP,ioos:station:wmo:42865:2,2021-01-19T21:30:00Z,28.4662,-88.2943,10.0,21.4,11111222
BP,ioos:station:wmo:42865:2,2021-01-19T21:40:00Z,28.4662,-88.2943,10.0,21.6,11111222
BP,ioos:station:wmo:42865:2,2021-01-19T21:50:00Z,28.4662,-88.2943,10.0,21.1,11111222
BP,ioos:station:wmo:42865:2,2021-01-19T22:00:00Z,28.4662,-88.2943,10.0,21.1,11111222
BP,ioos:station:wmo:42865:2,2021-01-19T22:10:00Z,28.4662,-88.2943,10.0,21.1,11111222
BP,ioos:station:wmo:42865:2,2021-01-19T22:20:00Z,28.4662,-88.2943,10.0,21.1,11111222
BP,ioos:station:wmo:42865:2,2021-01-19T22:30:00Z,28.4662,-88.2943,10.0,21.6,11111222
BP,ioos:station:wmo:42865:2,2021-01-19T22:40:00Z,28.4662,-88.2943,10.0,21.2,11111222
BP,ioos:station:wmo:42865:2,2021-01-19T22:50:00Z,28.4662,-88.2943,10.0,21.5,11111222
BP,ioos:station:wmo:42865:2,2021-01-19T23:00:00Z,28.4662,-88.2943,10.0,21.2,11111222
BP,ioos:station:wmo:42865:2,2021-01-19T23:10:00Z,28.4662,-88.2943,10.0,21.4,11111222
BP,ioos:station:wmo:42865:2,2021-01-19T23:20:00Z,28.4662,-88.2943,10.0,21.4,11111222
BP,ioos:station:wmo:42865:2,2021-01-19T23:30:00Z,28.4662,-88.2943,10.0,21.7,11111222
BP,ioos:station:wmo:42865:2,2021-01-19T23:40:00Z,28.4662,-88.2943,10.0,21.0,11111222
BP,ioos:station:wmo:42865:2,2021-01-19T23:50:00Z,28.4662,-88.2943,10.0,21.6,11111222
BP,ioos:station:wmo:42865:2,2021-01-20T00:11:00Z,28.4662,-88.2943,10.0,21.1,11111222
BP,ioos:station:wmo:42865:2,2021-01-20T00:21:00Z,28.4662,-88.2943,10.0,21.3,11111222
BP,ioos:station:wmo:42865:2,2021-01-20T00:31:00Z,28.4662,-88.2943,10.0,21.3,11111222
BP,ioos:station:wmo:42865:2,2021-01-20T00:41:00Z,28.4662,-88.2943,10.0,20.9,11111222
BP,ioos:station:wmo:42865:2,2021-01-20T00:51:00Z,28.4662,-88.2943,10.0,21.7,11111222
BP,ioos:station:wmo:42865:2,2021-01-20T01:01:00Z,28.4662,-88.2943,10.0,21.1,11111222
BP,ioos:station:wmo:42865:2,2021-01-20T01:11:00Z,28.4662,-88.2943,10.0,21.5,11111222
BP,ioos:station:wmo:42865:2,2021-01-20T01:21:00Z,28.4662,-88.2943,10.0,21.1,11111222
BP,ioos:station:wmo:42865:2,2021-01-20T01:31:00Z,28.4662,-88.2943,10.0,21.4,11111222
BP,ioos:station:wmo:42865:2,2021-01-20T01:41:00Z,28.4662,-88.2943,10.0,21.1,11111222
BP,ioos:station:wmo:42865:2,2021-01-20T01:51:00Z,28.4662,-88.2943,10.0,21.1,11111222
BP,ioos:station:wmo:42865:2,2021-01-20T02:01:00Z,28.4662,-88.2943,10.0,21.4,11111222
BP,ioos:station:wmo:42865:2,2021-01-20T02:11:00Z,28.4662,-88.2943,10.0,21.1,11111222
BP,ioos:station:wmo:42865:2,2021-01-20T02:21:00Z,28.4662,-88.2943,10.0,21.7,11111222
BP,ioos:station:wmo:42865:2,2021-01-20T02:31:00Z,28.4662,-88.2943,10.0,21.6,11111222
BP,ioos:station:wmo:42865:2,2021-01-20T02:41:00Z,28.4662,-88.2943,10.0,21.7,11111222
BP,ioos:station:wmo:42865:2,2021-01-20T02:51:00Z,28.4662,-88.2943,10.0,21.7,11111222
BP,ioos:station:wmo:42865:2,2021-01-20T03:01:00Z,28.4662,-88.2943,10.0,21.5,11111222
BP,ioos:station:wmo:42865:2,2021-01-20T03:11:00Z,28.4662,-88.2943,10.0,21.5,11111222
BP,ioos:station:wmo:42865:2,2021-01-20T03:21:00Z,28.4662,-88.2943,10.0,21.5,11111222
BP,ioos:station:wmo:42865:2,2021-01-20T03:31:00Z,28.4662,-88.2943,10.0,21.6,11111222
BP,ioos:station:wmo:42865:2,2021-01-20T03:41:00Z,28.4662,-88.2943,10.0,21.1,11111222
BP,ioos:station:wmo:42865:2,2021-01-20T03:51:00Z,28.4662,-88.2943,10.0,21.4,11111222
BP,ioos:station:wmo:42865:2,2021-01-20T04:01:00Z,28.4662,-88.2943,10.0,21.5,11111222
BP,ioos:station:wmo:42865:2,2021-01-20T04:11:00Z,28.4662,-88.2943,10.0,21.7,11111222
BP,ioos:station:wmo:42865:2,2021-01-20T04:21:00Z,28.4662,-88.2943,10.0,21.3,11111222
BP,ioos:station:wmo:42865:2,2021-01-20T04:31:00Z,28.4662,-88.2943,10.0,21.4,11111222
BP,ioos:station:wmo:42865:2,2021-01-20T04:41:00Z,28.4662,-88.2943,10.0,21.2,11111222
BP,ioos:station:wmo:42865:2,2021-01-20T04:51:00Z,28.4662,-88.2943,10.0,21.6,11111222
BP,ioos:station:wmo:42865:2,2021-01-20T05:01:00Z,28.4662,-88.2943,10.0,21.2,11111222
BP,ioos:station:wmo:42865:2,2021-01-20T05:11:00Z,28.4662,-88.2943,10.0,21.3,11111222
BP,ioos:station:wmo:42865:2,2021-01-20T05:21:00Z,28.4662,-88.2943,10.0,21.5,11111222
BP,ioos:station:wmo:42865:2,2021-01-20T05:31:00Z,28.4662,-88.2943,10.0,21.3,11111222
BP,ioos:station:wmo:42865:2,2021-01-20T05:41:00Z,28.4662,-88.2943,10.0,21.6,11111222
BP,ioos:station:wmo:42865:2,2021-01-20T05:51:00Z,28.4662,-88.2943,10.0,21.3,11111222
BP,ioos:station:wmo:42865:2,2021-01-20T06:01:00Z,28.4662,-88.2943,10.0,21.2,11111222
BP,ioos:station:wmo:42865:2,2021-01-20T06:11:00Z,28.4662,-88.2943,10.0,21.3,11111222
BP,ioos:station:wmo:42865:2,2021-01-20T06:21:00Z,28.4662,-88.2943,10.0,21.6,11111222
BP,ioos:station:wmo:42865:2,2021-01-20T06:31:00Z,28.4662,-88.2943,10.0,21.2,11111222
BP,ioos:station:wmo:42865:2,2021-01-20T06:41:00Z,28.4662,-88.2943,10.0,21.1,11111222
BP,ioos:station:wmo:42865:2,2021-01-20T06:51:00Z,28.4662,-88.2943,10.0,21.2,11111222
BP,ioos:station:wmo:42865:2,2021-01-20T07:01:00Z,28.4662,-88.2943,10.0,21.2,11111222
BP,ioos:station:wmo:42865:2,2021-01-20T07:11:00Z,28.4662,-88.2943,10.0,21.1,11111222
BP,ioos:station:wmo:42865:2,2021-01-20T07:21:00Z,28.4662,-88.2943,10.0,21.2,11111222
BP,ioos:station:wmo:42865:2,2021-01-20T07:31:00Z,28.4662,-88.2943,10.0,21.2,11111222
BP,ioos:station:wmo:42865:2,2021-01-20T07:41:00Z,28.4662,-88.2943,10.0,21.5,11111222
BP,ioos:station:wmo:42865:2,2021-01-20T07:51:00Z,28.4662,-88.2943,10.0,21.4,11111222
BP,ioos:station:wmo:42865:2,2021-01-20T08:01:00Z,28.4662,-88.2943,10.0,21.3,11111222
BP,ioos:station:wmo:42865:2,2021-01-20T08:11:00Z,28.4662,-88.2943,10.0,21.4,11111222
BP,ioos:station:wmo:42865:2,2021-01-20T08:21:00Z,28.4662,-88.2943,10.0,21.2,11111222
BP,ioos:station:wmo:42865:2,2021-01-20T08:31:00Z,28.4662,-88.2943,10.0,21.6,11111222
BP,ioos:station:wmo:42865:2,2021-01-20T08:41:00Z,28.4662,-88.2943,10.0,21.5,11111222
BP,ioos:station:wmo:42865:2,2021-01-20T08:51:00Z,28.4662,-88.2943,10.0,21.4,11111222
BP,ioos:station:wmo:42865:2,2021-01-20T09:01:00Z,28.4662,-88.2943,10.0,21.2,11111222
BP,ioos:station:wmo:42865:2,2021-01-20T09:11:00Z,28.4662,-88.2943,10.0,21.4,11111222
BP,ioos:station:wmo:42865:2,2021-01-20T09:21:00Z,28.4662,-88.2943,10.0,21.1,11111222
BP,ioos:station:wmo:42865:2,2021-01-20T09:31:00Z,28.4662,-88.2943,10.0,21.6,11111222
BP,ioos:station:wmo:42865:2,2021-01-20T09:41:00Z,28.4662,-88.2943,10.0,21.2,11111222
BP,ioos:station:wmo:42865:2,2021-01-20T09:51:00Z,28.4662,-88.2943,10.0,21.3,11111222
BP,ioos:station:wmo:42865:2,2021-01-20T10:01:00Z,28.4662,-88.2943,10.0,21.1,11111222
BP,ioos:station:wmo:42865:2,2021-01-20T10:11:00Z,28.4662,-88.2943,10.0,21.3,11111222
BP,ioos:station:wmo:42865:2,2021-01-20T10:21:00Z,28.4662,-88.2943,10.0,21.5,11111222
BP,ioos:station:wmo:42865:2,2021-01-20T10:31:00Z,28.4662,-88.2943,10.0,21.2,11111222
BP,ioos:station:wmo:42865:2,2021-01-20T10:41:00Z,28.4662,-88.2943,10.0,21.2,11111222
BP,ioos:station:wmo:42865:2,2021-01-20T10:51:00Z,28.4662,-88.2943,10.0,21.1,11111222
BP,ioos:station:wmo:42865:2,2021-01-20T11:01:00Z,28.4662,-88.2943,10.0,21.6,11111222
BP,ioos:station:wmo:42865:2,2021-01-20T11:11:00Z,28.4662,-88.2943,10.0,21.5,11111222
BP,ioos:station:wmo:42865:2,2021-01-20T11:21:00Z,28.4662,-88.2943,10.0,21.1,11111222
BP,ioos:station:wmo:42865:2,2021-01-20T11:31:00Z,28.4662,-88.2943,10.0,21.6,11111222
BP,ioos:station:wmo:42865:2,2021-01-20T11:41:00Z,28.4662,-88.2943,10.0,21.3,11111222
BP,ioos:station:wmo:42865:2,2021-01-20T11:51:00Z,28.4662,-88.2943,10.0,21.1,11111222
BP,ioos:station:wmo:42865:2,2021-01-20T12:01:00Z,28.4662,-88.2943,10.0,21.2,11111222
BP,ioos:station:wmo:42865:2,2021-01-20T12:11:00Z,28.4662,-88.2943,10.0,21.6,11111222
BP,ioos:station:wmo:42865:2,2021-01-20T12:21:00Z,28.4662,-88.2943,10.0,21.3,11111222
BP,ioos:station:wmo:42865:2,2021-01-20T12:31:00Z,28.4662,-88.2943,10.0,21.3,11111222
BP,ioos:station:wmo:42865:2,2021-01-20T12:41:00Z,28.4662,-88.2943,10.0,21.6,11111222
BP,ioos:station:wmo:42865:2,2021-01-20T12:51:00Z,28.4662,-88.2943,10.0,21.5,11111222
BP,ioos:station:wmo:42865:2,2021-01-20T13:01:00Z,28.4662,-88.2943,10.0,21.1,11111222
BP,ioos:station:wmo:42865:2,2021-01-20T13:11:00Z,28.4662,-88.2943,10.0,21.1,11111222
BP,ioos:station:wmo:42865:2,2021-01-20T13:21:00Z,28.4662,-88.2943,10.0,21.1,11111222
BP,ioos:station:wmo:42865:2,2021-01-20T13:31:00Z,28.4662,-88.2943,10.0,21.5,11111222
BP,ioos:station:wmo:42865:2,2021-01-20T13:41:00Z,28.4662,-88.2943,10.0,21.1,11111222
BP,ioos:station:wmo:42865:2,2021-01-20T13:51:00Z,28.4662,-88.2943,10.0,21.3,11111222
BP,ioos:station:wmo:42865:2,2021-01-20T14:01:00Z,28.4662,-88.2943,10.0,21.1,11111222
BP,ioos:station:wmo:42865:2,2021-01-20T14:11:00Z,28.4662,-88.2943,10.0,21.2,11111222
BP,ioos:station:wmo:42865:2,2021-01-20T14:21:00Z,28.4662,-88.2943,10.0,21.5,11111222
BP,ioos:station:wmo:42865:2,2021-01-20T14:31:00Z,28.4662,-88.2943,10.0,21.2,11111222
BP,ioos:station:wmo:42865:2,2021-01-20T14:41:00Z,28.4662,-88.2943,10.0,21.2,11111222
BP,ioos:station:wmo:42865:2,2021-01-20T14:51:00Z,28.4662,-88.2943,10.0,21.1,11111222
BP,ioos:station:wmo:42865:2,2021-01-20T15:01:00Z,28.4662,-88.2943,10.0,21.0,11111222
BP,ioos:station:wmo:42865:2,2021-01-20T15:11:00Z,28.4662,-88.2943,10.0,21.5,11111222
BP,ioos:station:wmo:42865:2,2021-01-21T03:45:00Z,28.4662,-88.2943,10.0,21.6,11111222
BP,ioos:station:wmo:42865:2,2021-01-21T03:55:00Z,28.4662,-88.2943,10.0,21.3,11111222
BP,ioos:station:wmo:42865:2,2021-01-21T04:05:00Z,28.4662,-88.2943,10.0,21.4,11111222
BP,ioos:station:wmo:42865:2,2021-01-21T04:15:00Z,28.4662,-88.2943,10.0,21.3,11111222
BP,ioos:station:wmo:42865:2,2021-01-21T04:25:00Z,28.4662,-88.2943,10.0,21.6,11111222
BP,ioos:station:wmo:42865:2,2021-01-21T04:35:00Z,28.4662,-88.2943,10.0,21.3,11111222
BP,ioos:station:wmo:42865:2,2021-01-21T04:45:00Z,28.4662,-88.2943,10.0,21.6,11111222
BP,ioos:station:wmo:42865:2,2021-01-21T04:55:00Z,28.4662,-88.2943,10.0,21.5,11111222
BP,ioos:station:wmo:42865:2,2021-01-21T05:05:00Z,28.4662,-88.2943,10.0,21.1,11111222
BP,ioos:station:wmo:42865:2,2021-01-21T05:15:00Z,28.4662,-88.2943,10.0,21.4,11111222
BP,ioos:station:wmo:42865:2,2021-01-21T05:25:00Z,28.4662,-88.2943,10.0,21.2,11111222
BP,ioos:station:wmo:42865:2,2021-01-21T05:35:00Z,28.4662,-88.2943,10.0,21.1,11111222
BP,ioos:station:wmo:42865:2,2021-01-21T05:45:00Z,28.4662,-88.2943,10.0,21.3,11111222
BP,ioos:station:wmo:42865:2,2021-01-21T05:55:00Z,28.4662,-88.2943,10.0,21.2,11111222
BP,ioos:station:wmo:42865:2,2021-01-21T06:05:00Z,28.4662,-88.2943,10.0,21.2,11111222
BP,ioos:station:wmo:42865:2,2021-01-21T06:15:00Z,28.4662,-88.2943,10.0,21.6,11111222
BP,ioos:station:wmo:42865:2,2021-01-21T06:25:00Z,28.4662,-88.2943,10.0,21.1,11111222
BP,ioos:station:wmo:42865:2,2021-01-21T06:35:00Z,28.4662,-88.2943,10.0,21.1,11111222
BP,ioos:station:wmo:42865:2,2021-01-21T06:45:00Z,28.4662,-88.2943,10.0,21.4,11111222
BP,ioos:station:wmo:42865:2,2021-01-21T06:55:00Z,28.4662,-88.2943,10.0,21.3,11111222
BP,ioos:station:wmo:42865:2,2021-01-21T07:05:00Z,28.4662,-88.2943,10.0,21.4,11111222
BP,ioos:station:wmo:42865:2,2021-01-21T07:15:00Z,28.4662,-88.2943,10.0,21.5,11111222
BP,ioos:station:wmo:42865:2,2021-01-21T07:25:00Z,28.4662,-88.2943,10.0,21.3,11111222
BP,ioos:station:wmo:42865:2,2021-01-21T07:35:00Z,28.4662,-88.2943,10.0,21.1,11111222
BP,ioos:station:wmo:42865:2,2021-01-21T07:45:00Z,28.4662,-88.2943,10.0,21.6,11111222
BP,ioos:station:wmo:42865:2,2021-01-21T07:55:00Z,28.4662,-88.2943,10.0,21.1,11111222
BP,ioos:station:wmo:42865:2,2021-01-21T08:05:00Z,28.4662,-88.2943,10.0,21.6,11111222
BP,ioos:station:wmo:42865:2,2021-01-21T08:15:00Z,28.4662,-88.2943,10.0,20.8,11111222
BP,ioos:station:wmo:42865:2,2021-01-21T08:25:00Z,28.4662,-88.2943,10.0,21.2,11111222
BP,ioos:station:wmo:42865:2,2021-01-21T08:35:00Z,28.4662,-88.2943,10.0,21.3,11111222
BP,ioos:station:wmo:42865:2,2021-01-21T08:45:00Z,28.4662,-88.2943,10.0,21.4,11111222
BP,ioos:station:wmo:42865:2,2021-01-21T08:55:00Z,28.4662,-88.2943,10.0,21.2,11111222
BP,ioos:station:wmo:42865:2,2021-01-21T09:05:00Z,28.4662,-88.2943,10.0,21.4,11111222
BP,ioos:station:wmo:42865:2,2021-01-21T09:15:00Z,28.4662,-88.2943,10.0,21.3,11111222
BP,ioos:station:wmo:42865:2,2021-01-21T09:25:00Z,28.4662,-88.2943,10.0,21.5,11111222
BP,ioos:station:wmo:42865:2,2021-01-21T09:35:00Z,28.4662,-88.2943,10.0,21.5,11111222
BP,ioos:station:wmo:42865:2,2021-01-21T09:45:00Z,28.4662,-88.2943,10.0,21.1,11111222
BP,ioos:station:wmo:42865:2,2021-01-21T09:55:00Z,28.4662,-88.2943,10.0,21.3,11111222
BP,ioos:station:wmo:42865:2,2021-01-21T10:05:00Z,28.4662,-88.2943,10.0,21.1,11111222
BP,ioos:station:wmo:42865:2,2021-01-21T10:15:00Z,28.4662,-88.2943,10.0,21.3,11111222
BP,ioos:station:wmo:42865:2,2021-01-21T10:25:00Z,28.4662,-88.2943,10.0,21.3,11111222
BP,ioos:station:wmo:42865:2,2021-01-21T10:35:00Z,28.4662,-88.2943,10.0,21.2,11111222
BP,ioos:station:wmo:42865:2,2021-01-21T10:45:00Z,28.4662,-88.2943,10.0,21.1,11111222
BP,ioos:station:wmo:42865:2,2021-01-21T10:55:00Z,28.4662,-88.2943,10.0,21.3,11111222
BP,ioos:station:wmo:42865:2,2021-01-21T11:05:00Z,28.4662,-88.2943,10.0,21.3,11111222
BP,ioos:station:wmo:42865:2,2021-01-21T11:15:00Z,28.4662,-88.2943,10.0,21.3,11111222
BP,ioos:station:wmo:42865:2,2021-01-21T11:25:00Z,28.4662,-88.2943,10.0,21.1,11111222
BP,ioos:station:wmo:42865:2,2021-01-21T11:35:00Z,28.4662,-88.2943,10.0,21.0,11111222
BP,ioos:station:wmo:42865:2,2021-01-21T11:45:00Z,28.4662,-88.2943,10.0,21.5,11111222
BP,ioos:station:wmo:42865:2,2021-01-21T11:55:00Z,28.4662,-88.2943,10.0,21.2,11111222
BP,ioos:station:wmo:42865:2,2021-01-21T12:05:00Z,28.4662,-88.2943,10.0,21.4,11111222
BP,ioos:station:wmo:42865:2,2021-01-21T12:15:00Z,28.4662,-88.2943,10.0,21.4,11111222
BP,ioos:station:wmo:42865:2,2021-01-21T12:25:00Z,28.4662,-88.2943,10.0,21.4,11111222
BP,ioos:station:wmo:42865:2,2021-01-21T12:35:00Z,28.4662,-88.2943,10.0,21.0,11111222
BP,ioos:station:wmo:42865:2,2021-01-21T12:45:00Z,28.4662,-88.2943,10.0,20.8,11111222
BP,ioos:station:wmo:42865:2,2021-01-21T12:55:00Z,28.4662,-88.2943,10.0,21.3,11111222
BP,ioos:station:wmo:42865:2,2021-01-21T13:05:00Z,28.4662,-88.2943,10.0,21.0,11111222
BP,ioos:station:wmo:42865:2,2021-01-21T13:15:00Z,28.4662,-88.2943,10.0,21.0,11111222
BP,ioos:station:wmo:42865:2,2021-01-21T13:25:00Z,28.4662,-88.2943,10.0,20.9,11111222
BP,ioos:station:wmo:42865:2,2021-01-21T13:35:00Z,28.4662,-88.2943,10.0,21.5,11111222
BP,ioos:station:wmo:42865:2,2021-01-21T13:45:00Z,28.4662,-88.2943,10.0,21.4,11111222
BP,ioos:station:wmo:42865:2,2021-01-21T13:55:00Z,28.4662,-88.2943,10.0,21.0,11111222
BP,ioos:station:wmo:42865:2,2021-01-21T14:05:00Z,28.4662,-88.2943,10.0,21.4,11111222
BP,ioos:station:wmo:42865:2,2021-01-21T14:15:00Z,28.4662,-88.2943,10.0,21.4,11111222
BP,ioos:station:wmo:42865:2,2021-01-21T14:25:00Z,28.4662,-88.2943,10.0,21.1,11111222
BP,ioos:station:wmo:42865:2,2021-01-21T14:35:00Z,28.4662,-88.2943,10.0,21.1,11111222
BP,ioos:station:wmo:42865:2,2021-01-21T14:45:00Z,28.4662,-88.2943,10.0,20.9,11111222
BP,ioos:station:wmo:42865:2,2021-01-21T14:55:00Z,28.4662,-88.2943,10.0,21.4,11111222
BP,ioos:station:wmo:42865:2,2021-01-21T15:05:00Z,28.4662,-88.2943,10.0,21.5,11111222
BP,ioos:station:wmo:42865:2,2021-01-21T15:15:00Z,28.4662,-88.2943,10.0,21.4,11111222
BP,ioos:station:wmo:42865:2,2021-01-21T15:25:00Z,28.4662,-88.2943,10.0,21.6,11111222
BP,ioos:station:wmo:42865:2,2021-01-21T15:35:00Z,28.4662,-88.2943,10.0,21.4,11111222
BP,ioos:station:wmo:42865:2,2021-01-21T15:45:00Z,28.4662,-88.2943,10.0,21.6,11111222
BP,ioos:station:wmo:42865:2,2021-01-21T15:55:00Z,28.4662,-88.2943,10.0,21.3,11111222
BP,ioos:station:wmo:42865:2,2021-01-21T16:05:00Z,28.4662,-88.2943,10.0,21.5,11111222
BP,ioos:station:wmo:42865:2,2021-01-21T16:15:00Z,28.4662,-88.2943,10.0,21.4,11111222
BP,ioos:station:wmo:42865:2,2021-01-21T16:25:00Z,28.4662,-88.2943,10.0,21.2,11111222
BP,ioos:station:wmo:42865:2,2021-01-21T16:35:00Z,28.4662,-88.2943,10.0,21.6,11111222
BP,ioos:station:wmo:42865:2,2021-01-21T16:45:00Z,28.4662,-88.2943,10.0,21.2,11111222
BP,ioos:station:wmo:42865:2,2021-01-21T16:55:00Z,28.4662,-88.2943,10.0,21.4,11111222
BP,ioos:station:wmo:42865:2,2021-01-21T17:05:00Z,28.4662,-88.2943,10.0,21.5,11111222
BP,ioos:station:wmo:42865:2,2021-01-21T17:15:00Z,28.4662,-88.2943,10.0,21.5,11111222
BP,ioos:station:wmo:42865:2,2021-01-21T17:25:00Z,28.4662,-88.2943,10.0,21.3,11111222
BP,ioos:station:wmo:42865:2,2021-01-21T17:35:00Z,28.4662,-88.2943,10.0,21.3,11111222
BP,ioos:station:wmo:42865:2,2021-01-21T17:45:00Z,28.4662,-88.2943,10.0,21.1,11111222
BP,ioos:station:wmo:42865:2,2021-01-21T17:55:00Z,28.4662,-88.2943,10.0,21.1,11111222
BP,ioos:station:wmo:42865:2,2021-01-21T18:05:00Z,28.4662,-88.2943,10.0,21.5,11111222
BP,ioos:station:wmo:42865:2,2021-01-21T18:15:00Z,28.4662,-88.2943,10.0,21.5,11111222
BP,ioos:station:wmo:42865:2,2021-01-21T18:25:00Z,28.4662,-88.2943,10.0,21.5,11111222
BP,ioos:station:wmo:42865:2,2021-01-21T18:35:00Z,28.4662,-88.2943,10.0,21.4,11111222
BP,ioos:station:wmo:42865:2,2021-01-21T18:45:00Z,28.4662,-88.2943,10.0,21.4,11111222
BP,ioos:station:wmo:42865:2,2021-01-21T18:55:00Z,28.4662,-88.2943,10.0,21.5,11111222
BP,ioos:station:wmo:42865:2,2021-01-21T19:05:00Z,28.4662,-88.2943,10.0,21.0,11111222
BP,ioos:station:wmo:42865:2,2021-01-21T19:15:00Z,28.4662,-88.2943,10.0,20.9,11111222
BP,ioos:station:wmo:42865:2,2021-01-21T19:25:00Z,28.4662,-88.2943,10.0,21.1,11111222
BP,ioos:station:wmo:42865:2,2021-01-21T19:35:00Z,28.4662,-88.2943,10.0,21.5,11111222
BP,ioos:station:wmo:42865:2,2021-01-21T19:45:00Z,28.4662,-88.2943,10.0,21.5,11111222
BP,ioos:station:wmo:42865:2,2021-01-21T19:55:00Z,28.4662,-88.2943,10.0,21.4,11111222
BP,ioos:station:wmo:42865:2,2021-01-21T20:05:00Z,28.4662,-88.2943,10.0,21.1,11111222
BP,ioos:station:wmo:42865:2,2021-01-21T20:15:00Z,28.4662,-88.2943,10.0,21.4,11111222
BP,ioos:station:wmo:42865:2,2021-01-21T20:25:00Z,28.4662,-88.2943,10.0,21.4,11111222
BP,ioos:station:wmo:42865:2,2021-01-21T20:35:00Z,28.4662,-88.2943,10.0,21.1,11111222
BP,ioos:station:wmo:42865:2,2021-01-21T20:56:00Z,28.4662,-88.2943,10.0,21.5,11111222
BP,ioos:station:wmo:42865:2,2021-01-21T21:06:00Z,28.4662,-88.2943,10.0,21.5,11111222
BP,ioos:station:wmo:42865:2,2021-01-21T21:16:00Z,28.4662,-88.2943,10.0,21.5,11111222
BP,ioos:station:wmo:42865:2,2021-01-21T21:26:00Z,28.4662,-88.2943,10.0,21.5,11111222
BP,ioos:station:wmo:42865:2,2021-01-21T21:36:00Z,28.4662,-88.2943,10.0,21.1,11111222
BP,ioos:station:wmo:42865:2,2021-01-21T21:46:00Z,28.4662,-88.2943,10.0,21.4,11111222
BP,ioos:station:wmo:42865:2,2021-01-21T21:56:00Z,28.4662,-88.2943,10.0,21.2,11111222
BP,ioos:station:wmo:42865:2,2021-01-21T22:06:00Z,28.4662,-88.2943,10.0,21.3,11111222
BP,ioos:station:wmo:42865:2,2021-01-21T22:16:00Z,28.4662,-88.2943,10.0,21.1,11111222